Rogers, AR

12:28 AM CST on January 17, 2017 (GMT -0600)
Rogers Municipal-Carter

Weather History for KROG - January, 2014

Change the Weather History Date:

Saturday, January 18, 2014

  Actual Average Record
Temperature  
Mean Temperature 40 °F -  
Max Temperature 55 °F 43 °F 62 °F (2006)
Min Temperature 26 °F 26 °F 6 °F (1997)
Degree Days  
Heating Degree Days 24    
Moisture  
Dew Point 19 °F    
Average Humidity 43    
Maximum Humidity 63    
Minimum Humidity 29    
Precipitation  
Precipitation 0.00 in - - ()
Sea Level Pressure  
Sea Level Pressure 29.99 in    
Wind  
Wind Speed 15 mph (WSW)    
Max Wind Speed 30 mph    
Max Gust Speed 39 mph    
Visibility 10 miles    
Events      
Averages and records for this station are not official NWS values.
T = Trace of Precipitation, MM = Missing Value Source: NWS Daily Summary

Daily Weather History Graph

Daily Weather History Graph

Search for Another Location

Airport or City:

Trip Planner

Search our weather history database for the weather conditions in past years. The results will help you decide how hot, cold, wet, or windy it might be!

Date:

Astronomy

Jan. 18, 2014 Rise Set
Actual Time 7:26 AM CST 5:28 PM CST
Civil Twilight 6:58 AM CST 5:55 PM CST
Nautical Twilight 6:26 AM CST 6:27 PM CST
Astronomical Twilight 5:55 AM CST 6:58 PM CST
Moon 8:04 PM CST (1/18) 8:31 AM CST (1/18)
Length of Visible Light 10h 57m
Length of Day
10h 01m
Waning Gibbous, 94% of the Moon is Illuminated
Jan 18
Waning Gibbous
Jan 23
Last Quarter
Jan 30
New
Feb 6
First Quarter
Feb 14
Full

Hourly Weather History & Observations

Time (CST) Temp. Windchill Dew Point Humidity Pressure Visibility Wind Dir Wind Speed Gust Speed Precip Events Conditions
12:57 AM 26.1 °F 16.8 °F 15.1 °F 63% 30.11 in 10.0 mi South 9.2 mph - N/A   Clear
1:57 AM 27.0 °F 18.7 °F 15.1 °F 61% 30.10 in 10.0 mi South 8.1 mph - N/A   Clear
2:57 AM 26.1 °F 18.4 °F 15.1 °F 63% 30.07 in 10.0 mi SE 6.9 mph - N/A   Partly Cloudy
3:57 AM 28.0 °F 18.1 °F 16.0 °F 61% 30.02 in 10.0 mi South 11.5 mph - N/A   Scattered Clouds
4:57 AM 33.1 °F 23.4 °F 14.0 °F 46% 30.00 in 10.0 mi SSW 13.8 mph - N/A   Clear
5:57 AM 34.0 °F 24.6 °F 15.1 °F 46% 29.98 in 10.0 mi SSW 13.8 mph - N/A   Clear
6:57 AM 37.0 °F 27.4 °F 15.1 °F 41% 29.95 in 10.0 mi SSW 17.3 mph 24.2 mph N/A   Mostly Cloudy
7:57 AM 37.9 °F 28.2 °F 16.0 °F 41% 29.93 in 10.0 mi SW 18.4 mph 28.8 mph N/A   Clear
8:57 AM 39.9 °F 30.5 °F 17.1 °F 40% 29.92 in 10.0 mi SW 19.6 mph 31.1 mph N/A   Partly Cloudy
9:57 AM 44.1 °F 35.4 °F 18.0 °F 35% 29.92 in 10.0 mi WSW 21.9 mph 31.1 mph N/A   Clear
10:57 AM 46.9 °F - 19.9 °F 34% 29.91 in 10.0 mi WSW 19.6 mph 31.1 mph N/A   Clear
11:57 AM 51.1 °F - 21.0 °F 31% 29.89 in 10.0 mi West 15.0 mph 23.0 mph N/A   Clear
12:57 PM 53.1 °F - 23.0 °F 31% 29.86 in 10.0 mi West 17.3 mph 23.0 mph N/A   Clear
1:57 PM 54.0 °F - 23.0 °F 30% 29.86 in 10.0 mi WNW 18.4 mph 27.6 mph N/A   Clear
2:57 PM 55.0 °F - 23.0 °F 29% 29.87 in 10.0 mi WNW 29.9 mph 39.1 mph N/A   Scattered Clouds
3:57 PM 52.0 °F - 21.0 °F 30% 29.91 in 10.0 mi WNW 28.8 mph 38.0 mph N/A   Clear
4:57 PM 50.0 °F - 21.0 °F 32% 29.95 in 10.0 mi NW 23.0 mph 31.1 mph N/A   Scattered Clouds
5:57 PM 46.9 °F - 19.9 °F 34% 29.99 in 10.0 mi WNW 17.3 mph 25.3 mph N/A   Clear
6:57 PM 45.0 °F 36.9 °F 21.9 °F 40% 30.01 in 10.0 mi WNW 20.7 mph 26.5 mph N/A   Clear
7:57 PM 43.0 °F 35.1 °F 21.9 °F 43% 30.05 in 10.0 mi WNW 17.3 mph 21.9 mph N/A   Clear
8:57 PM 42.1 °F 33.1 °F 23.0 °F 47% 30.05 in 10.0 mi WNW 20.7 mph 31.1 mph N/A   Clear
9:57 PM 41.0 °F 30.9 °F 23.0 °F 49% 30.07 in 10.0 mi NW 24.2 mph 33.4 mph N/A   Clear
10:57 PM 39.0 °F 29.0 °F 21.9 °F 50% 30.10 in 10.0 mi NW 20.7 mph 33.4 mph N/A   Clear
11:57 PM 34.0 °F 26.0 °F 19.9 °F 56% 30.12 in 10.0 mi NNW 10.4 mph - N/A   Clear